Marysville, OH

8:38 PM EDT on April 20, 2018 (GMT -0400)
Marysville

Weather History for KMRT - August, 2014

Change the Weather History Date:

Friday, August 15, 2014

  Actual Average (KDLZ) Record (KDLZ)
Temperature  
Mean Temperature 59 °F -  
Max Temperature 72 °F 83 °F 94 °F (1965)
Min Temperature 46 °F 59 °F 41 °F (1964)
Degree Days  
Heating Degree Days 6    
Growing Degree Days 9 (Base 50)    
Moisture  
Dew Point 44 °F    
Average Humidity 64    
Maximum Humidity 90    
Minimum Humidity 27    
Precipitation  
Precipitation 0.00 in - - ()
Sea Level Pressure  
Sea Level Pressure 30.05 in    
Wind  
Wind Speed 2 mph (North)    
Max Wind Speed 9 mph    
Max Gust Speed -    
Visibility 10 miles    
Events      
Averages and records for this station are not official NWS values.
T = Trace of Precipitation, MM = Missing Value Source: NWS Daily Summary

Daily Weather History Graph

Daily Weather History Graph

Search for Another Location

Airport or City:

Astronomy

Aug. 15, 2014 Rise Set
Actual Time 6:44 AM EDT 8:30 PM EDT
Civil Twilight 6:15 AM EDT 8:59 PM EDT
Nautical Twilight 5:40 AM EDT 9:34 PM EDT
Astronomical Twilight 5:02 AM EDT 10:12 PM EDT
Moon 11:31 PM EDT (8/15) 12:26 PM EDT (8/15)
Length of Visible Light 14h 43m
Length of Day
13h 45m
Waning Gibbous, 69% of the Moon is Illuminated
Aug 15
Waning Gibbous
Aug 17
Last Quarter
Aug 25
New
Sep 2
First Quarter
Sep 8
Full

Hourly Weather History & Observations

Time (EDT) Temp. Dew Point Humidity Pressure Visibility Wind Dir Wind Speed Gust Speed Precip Events Conditions
12:14 AM 51.8 °F 47.3 °F 85% 30.04 in 10.0 mi Calm Calm - N/A   Clear
12:33 AM 51.3 °F 47.3 °F 86% 30.04 in 10.0 mi Calm Calm - N/A   Clear
12:53 AM 51.8 °F 46.9 °F 83% 30.04 in 10.0 mi Calm Calm - N/A   Clear
1:14 AM 50.2 °F 46.0 °F 86% 30.04 in 10.0 mi Calm Calm - N/A   Clear
1:33 AM 49.1 °F 45.5 °F 87% 30.03 in 10.0 mi SW 3.5 mph - N/A   Clear
1:54 AM 48.6 °F 45.5 °F 89% 30.03 in 10.0 mi Calm Calm - N/A   Clear
2:13 AM 48.6 °F 45.3 °F 89% 30.03 in 10.0 mi SW 3.5 mph - N/A   Clear
2:33 AM 48.0 °F 45.0 °F 89% 30.03 in 10.0 mi Calm Calm - N/A   Clear
2:54 AM 49.6 °F 45.7 °F 86% 30.03 in 10.0 mi Calm Calm - N/A   Clear
3:13 AM 48.0 °F 44.6 °F 88% 30.03 in 10.0 mi Calm Calm - N/A   Clear
3:33 AM 47.5 °F 44.6 °F 90% 30.03 in 10.0 mi Calm Calm - N/A   Clear
3:54 AM 47.7 °F 44.6 °F 89% 30.04 in 10.0 mi Calm Calm - N/A   Clear
4:13 AM 47.3 °F 44.2 °F 89% 30.04 in 10.0 mi Calm Calm - N/A   Clear
4:33 AM 46.6 °F 43.7 °F 90% 30.04 in 10.0 mi Calm Calm - N/A   Clear
4:54 AM 47.5 °F 44.4 °F 89% 30.05 in 10.0 mi Calm Calm - N/A   Clear
5:13 AM 46.6 °F 43.7 °F 90% 30.05 in 10.0 mi Calm Calm - N/A   Clear
5:33 AM 46.0 °F 43.2 °F 90% 30.05 in 10.0 mi Calm Calm - N/A   Clear
5:54 AM 47.3 °F 43.9 °F 88% 30.05 in 10.0 mi Calm Calm - N/A   Clear
6:13 AM 46.9 °F 43.7 °F 88% 30.05 in 10.0 mi Calm Calm - N/A   Clear
6:33 AM 47.3 °F 43.5 °F 87% 30.06 in 10.0 mi Calm Calm - N/A   Clear
6:54 AM 47.8 °F 44.1 °F 87% 30.07 in 10.0 mi Calm Calm - N/A   Clear
7:13 AM 46.9 °F 43.2 °F 87% 30.07 in 10.0 mi Calm Calm - N/A   Clear
7:34 AM 47.7 °F 44.6 °F 89% 30.08 in 10.0 mi North 3.5 mph - N/A   Clear
7:54 AM 51.4 °F 46.9 °F 85% 30.08 in 10.0 mi NNW 3.5 mph - N/A   Clear
8:13 AM 53.6 °F 46.9 °F 78% 30.08 in 10.0 mi North 4.6 mph - N/A   Clear
8:34 AM 55.2 °F 47.1 °F 74% 30.08 in 10.0 mi NNE 4.6 mph - N/A   Clear
8:53 AM 56.3 °F 47.5 °F 72% 30.08 in 10.0 mi NNE 3.5 mph - N/A   Clear
9:13 AM 57.6 °F 48.4 °F 71% 30.08 in 10.0 mi North 4.6 mph - N/A   Clear
9:34 AM 59.4 °F 49.3 °F 69% 30.09 in 10.0 mi NNE 4.6 mph - N/A   Clear
9:54 AM 60.3 °F 49.3 °F 67% 30.09 in 10.0 mi Calm Calm - N/A   Clear
10:13 AM 62.1 °F 48.9 °F 62% 30.09 in 10.0 mi Calm Calm - N/A   Clear
10:34 AM 63.9 °F 49.3 °F 59% 30.09 in 10.0 mi Calm Calm - N/A   Clear
10:53 AM 64.4 °F 47.5 °F 54% 30.09 in 10.0 mi Calm Calm - N/A   Clear
11:13 AM 66.6 °F 45.9 °F 47% 30.09 in 10.0 mi NNW 5.8 mph - N/A   Clear
11:34 AM 67.3 °F 46.9 °F 48% 30.09 in 10.0 mi NE 3.5 mph - N/A   Clear
11:53 AM 67.5 °F 46.4 °F 47% 30.09 in 10.0 mi NNW 5.8 mph - N/A   Clear
12:13 PM 68.2 °F 45.3 °F 44% 30.09 in 10.0 mi North 6.9 mph - N/A   Clear
12:34 PM 68.7 °F 45.0 °F 42% 30.09 in 10.0 mi North 3.5 mph - N/A   Clear
12:53 PM 68.9 °F 43.5 °F 40% 30.09 in 10.0 mi NNE 4.6 mph - N/A   Clear
1:13 PM 69.4 °F 43.2 °F 39% 30.08 in 10.0 mi NNW 5.8 mph - N/A   Clear
1:34 PM 70.3 °F 43.7 °F 38% 30.07 in 10.0 mi North 5.8 mph - N/A   Clear
1:53 PM 71.1 °F 41.4 °F 34% 30.07 in 10.0 mi NNW 8.1 mph - N/A   Clear
2:13 PM 71.1 °F 41.2 °F 34% 30.07 in 10.0 mi North 9.2 mph - N/A   Clear
2:34 PM 71.1 °F 39.6 °F 32% 30.07 in 10.0 mi North 9.2 mph - N/A   Clear
2:53 PM 71.6 °F 39.6 °F 31% 30.06 in 10.0 mi NNE 8.1 mph - N/A   Clear
3:13 PM 72.0 °F 41.4 °F 33% 30.06 in 10.0 mi NW 8.1 mph - N/A   Clear
3:34 PM 72.1 °F 39.0 °F 30% 30.05 in 10.0 mi North 6.9 mph - N/A   Clear
3:53 PM 71.6 °F 37.4 °F 29% 30.05 in 10.0 mi NNW 3.5 mph - N/A   Clear
4:13 PM 72.3 °F 36.1 °F 27% 30.05 in 10.0 mi Calm Calm - N/A   Clear
4:34 PM 71.8 °F 39.7 °F 31% 30.05 in 10.0 mi NNE 6.9 mph - N/A   Clear
4:53 PM 72.1 °F 39.0 °F 30% 30.05 in 10.0 mi NNE 4.6 mph - N/A   Clear
5:13 PM 72.0 °F 37.9 °F 29% 30.05 in 10.0 mi NE 8.1 mph - N/A   Clear
5:34 PM 72.0 °F 38.7 °F 30% 30.04 in 10.0 mi NW 5.8 mph - N/A   Clear
5:53 PM 71.4 °F 38.1 °F 30% 30.04 in 10.0 mi North 3.5 mph - N/A   Clear
6:13 PM 71.6 °F 39.6 °F 31% 30.04 in 10.0 mi North 5.8 mph - N/A   Clear
6:34 PM 71.1 °F 38.8 °F 31% 30.03 in 10.0 mi Calm Calm - N/A   Clear
6:53 PM 70.7 °F 38.7 °F 31% 30.03 in 10.0 mi Calm Calm - N/A   Clear
7:14 PM 69.6 °F 41.7 °F 36% 30.02 in 10.0 mi NW 3.5 mph - N/A   Clear
7:34 PM 66.2 °F 48.4 °F 53% 30.03 in 10.0 mi Calm Calm - N/A   Clear
7:53 PM 68.0 °F 41.7 °F 38% 30.03 in 10.0 mi North 4.6 mph - N/A   Clear
8:14 PM 65.7 °F 44.6 °F 47% 30.02 in 10.0 mi Calm Calm - N/A   Clear
8:33 PM 61.0 °F 47.8 °F 62% 30.02 in 10.0 mi Calm Calm - N/A   Clear
8:53 PM 57.9 °F 48.2 °F 70% 30.02 in 1.2 mi Calm Calm - N/A   Unknown
9:14 PM 55.6 °F 48.4 °F 77% 30.03 in 7.0 mi Calm Calm - N/A   Clear
9:33 PM 57.0 °F 47.7 °F 71% 30.03 in 10.0 mi Calm Calm - N/A   Clear
9:53 PM 53.4 °F 47.7 °F 81% 30.03 in 10.0 mi Calm Calm - N/A   Clear
10:14 PM 52.7 °F 48.2 °F 85% 30.03 in 10.0 mi Calm Calm - N/A   Clear
10:33 PM 51.3 °F 47.3 °F 86% 30.04 in 10.0 mi Calm Calm - N/A   Clear
10:53 PM 50.9 °F 46.8 °F 86% 30.04 in 10.0 mi Calm Calm - N/A   Clear
11:14 PM 51.4 °F 46.9 °F 85% 30.04 in 10.0 mi Calm Calm - N/A   Clear
11:33 PM 52.0 °F 46.8 °F 82% 30.05 in 10.0 mi Calm Calm - N/A   Clear
11:53 PM 50.9 °F 46.0 °F 83% 30.05 in 10.0 mi Calm Calm - N/A   Clear